| time (UTC) | temp C | wind direction | speed KPH | gust KPH | rain 1hr cm | rain 24hr cm | rain mn cm | humidity % | barometer mb |
| 20260506044611 | 13 | 96 | 6.4 | 19.3 | 0.00 | 0.00 | 0.00 | 85 | 1009.9 |
| 20260506043059 | 13 | 338 | 4.8 | 24.1 | 0.00 | 0.00 | 0.00 | 84 | 1010.0 |
| 20260506041558 | 13 | 49 | 4.8 | 20.9 | 0.00 | 0.00 | 0.00 | 84 | 1010.1 |
| 20260506040100 | 14 | 137 | 4.8 | 24.1 | 0.00 | 0.00 | 0.00 | 83 | 1010.0 |
| 20260506034601 | 14 | 95 | 4.8 | 19.3 | 0.00 | 0.00 | 0.00 | 82 | 1009.9 |
| 20260506033057 | 14 | 156 | 4.8 | 33.8 | 0.00 | 0.00 | 0.00 | 82 | 1010.0 |
| 20260506031600 | 14 | 331 | 4.8 | 19.3 | 0.00 | 0.00 | 0.00 | 82 | 1009.8 |
| 20260506030100 | 15 | 53 | 6.4 | 25.7 | 0.00 | 0.00 | 0.00 | 82 | 1009.8 |
| 20260506024559 | 15 | 94 | 6.4 | 27.4 | 0.00 | 0.00 | 0.00 | 82 | 1009.9 |
| 20260506023059 | 15 | 264 | 6.4 | 27.4 | 0.00 | 0.00 | 0.00 | 82 | 1009.9 |
| 20260506021605 | 15 | 160 | 8.0 | 24.1 | 0.00 | 0.00 | 0.00 | 82 | 1009.9 |
| 20260506020100 | 15 | 98 | 6.4 | 19.3 | 0.00 | 0.00 | 0.00 | 81 | 1010.1 |
| 20260506014612 | 15 | 65 | 8.0 | 24.1 | 0.00 | 0.00 | 0.00 | 79 | 1010.1 |
| 20260506013059 | 15 | 39 | 4.8 | 27.4 | 0.00 | 0.00 | 0.00 | 79 | 1009.8 |
| 20260506011557 | 15 | 344 | 6.4 | 25.7 | 0.00 | 0.00 | 0.00 | 78 | 1009.8 |
| 20260506010103 | 15 | 1 | 9.7 | 24.1 | 0.00 | 0.00 | 0.00 | 78 | 1009.6 |
| 20260506004604 | 15 | 112 | 6.4 | 20.9 | 0.00 | 0.00 | 0.00 | 77 | 1009.4 |
| 20260506003117 | 16 | 325 | 9.7 | 24.1 | 0.00 | 0.00 | 0.00 | 75 | 1009.2 |
| 20260506001623 | 16 | 263 | 6.4 | 22.5 | 0.00 | 0.00 | 0.00 | 75 | 1009.0 |
| 20260506000110 | 16 | 339 | 4.8 | 24.1 | 0.00 | 0.00 | 0.00 | 75 | 1008.7 |
| 20260505234613 | 16 | 324 | 9.7 | 37.0 | 0.00 | 0.00 | 0.00 | 75 | 1008.4 |
| 20260505233055 | 16 | 349 | 11.3 | 38.6 | 0.00 | 0.00 | 0.00 | 75 | 1008.1 |
| 20260505231556 | 16 | 307 | 9.7 | 27.4 | 0.00 | 0.00 | 0.00 | 76 | 1008.0 |
| 20260505230057 | 16 | 150 | 11.3 | 32.2 | 0.00 | 0.00 | 0.00 | 75 | 1007.9 |
| 20260505224600 | 16 | 301 | 11.3 | 27.4 | 0.00 | 0.00 | 0.00 | 74 | 1007.8 |
| 20260505223107 | 16 | 333 | 14.5 | 32.2 | 0.00 | 0.00 | 0.00 | 75 | 1007.6 |
| 20260505221603 | 16 | 337 | 11.3 | 24.1 | 0.00 | 0.00 | 0.00 | 73 | 1007.5 |
| 20260505220100 | 17 | 6 | 9.7 | 32.2 | 0.00 | 0.00 | 0.00 | 71 | 1007.4 |
| 20260505214603 | 17 | 27 | 6.4 | 24.1 | 0.00 | 0.00 | 0.00 | 72 | 1007.5 |
| 20260505213104 | 17 | 345 | 9.7 | 27.4 | 0.00 | 0.00 | 0.00 | 72 | 1007.3 |
| 20260505211629 | 17 | 301 | 9.7 | 25.7 | 0.00 | 0.00 | 0.00 | 71 | 1007.2 |
| 20260505210059 | 17 | 158 | 11.3 | 27.4 | 0.00 | 0.00 | 0.00 | 72 | 1007.3 |
| 20260505204600 | 17 | 292 | 9.7 | 35.4 | 0.00 | 0.00 | 0.00 | 72 | 1007.3 |
| 20260505203126 | 17 | 53 | 8.0 | 25.7 | 0.00 | 0.00 | 0.00 | 72 | 1007.5 |
| 20260505201600 | 17 | 308 | 8.0 | 24.1 | 0.00 | 0.00 | 0.00 | 73 | 1007.6 |
| 20260505200057 | 17 | 144 | 8.0 | 25.7 | 0.00 | 0.00 | 0.00 | 73 | 1007.7 |
| 20260505194602 | 17 | 341 | 6.4 | 20.9 | 0.00 | 0.00 | 0.00 | 71 | 1007.8 |
| 20260505193102 | 18 | 350 | 6.4 | 22.5 | 0.00 | 0.00 | 0.00 | 71 | 1008.2 |
| 20260505191558 | 18 | 330 | 4.8 | 17.7 | 0.00 | 0.00 | 0.00 | 71 | 1008.5 |
| 20260505190058 | 17 | 144 | 9.7 | 25.7 | 0.00 | 0.00 | 0.00 | 72 | 1008.9 |
| 20260505184600 | 18 | 66 | 4.8 | 20.9 | 0.00 | 0.00 | 0.00 | 72 | 1009.0 |
| 20260505183104 | 17 | 45 | 9.7 | 24.1 | 0.00 | 0.00 | 0.00 | 72 | 1009.1 |
| 20260505181559 | 18 | 25 | 8.0 | 16.1 | 0.00 | 0.00 | 0.00 | 70 | 1009.1 |
| 20260505180114 | 17 | 164 | 4.8 | 20.9 | 0.00 | 0.00 | 0.00 | 72 | 1009.3 |
| 20260505174600 | 17 | 341 | 11.3 | 29.0 | 0.00 | 0.00 | 0.00 | 72 | 1009.3 |
| 20260505173057 | 17 | 58 | 6.4 | 17.7 | 0.00 | 0.00 | 0.00 | 73 | 1009.3 |
| 20260505171559 | 18 | 13 | 4.8 | 16.1 | 0.00 | 0.00 | 0.00 | 73 | 1009.5 |
| 20260505170058 | 17 | 334 | 4.8 | 16.1 | 0.00 | 0.00 | 0.00 | 74 | 1009.6 |
| 20260505164602 | 17 | 354 | 8.0 | 17.7 | 0.00 | 0.00 | 0.00 | 73 | 1009.7 |
| 20260505163056 | 18 | 319 | 6.4 | 14.5 | 0.00 | 0.00 | 0.00 | 70 | 1009.6 |
| 20260505161556 | 18 | 314 | 4.8 | 17.7 | 0.00 | 0.00 | 0.00 | 71 | 1009.9 |
| 20260505153059 | 18 | 72 | 4.8 | 9.7 | 0.00 | 0.00 | 0.00 | 73 | 1009.8 |
| 20260505151557 | 17 | 28 | 6.4 | 16.1 | 0.00 | 0.00 | 0.00 | 73 | 1010.2 |
| 20260505140116 | 17 | 339 | 3.2 | 14.5 | 0.00 | 0.00 | 0.00 | 75 | 1010.0 |
| 20260505124601 | 15 | 8 | 4.8 | 11.3 | 0.00 | 0.00 | 0.00 | 80 | 1009.6 |
| 20260505123058 | 15 | 305 | 3.2 | 8.0 | 0.00 | 0.00 | 0.00 | 82 | 1009.7 |
| 20260505121557 | 14 | 300 | 0.0 | 6.4 | 0.00 | 0.00 | 0.00 | 84 | 1009.7 |
| 20260505120112 | 14 | 262 | 3.2 | 8.0 | 0.00 | 0.00 | 0.00 | 85 | 1009.9 |
| 20260505114559 | 13 | 263 | 1.6 | 4.8 | 0.00 | 0.00 | 0.00 | 87 | 1009.9 |
| 20260505113104 | 13 | 47 | 0.0 | 4.8 | 0.00 | 0.00 | 0.00 | 87 | 1009.9 |
| 20260505111600 | 13 | 123 | 0.0 | 4.8 | 0.00 | 0.00 | 0.00 | 89 | 1009.9 |
| 20260505101606 | 11 | 0 | 1.6 | 8.0 | 0.00 | 0.00 | 0.00 | 93 | 1009.1 |
| 20260505100100 | 11 | 315 | 1.6 | 6.4 | 0.00 | 0.00 | 0.00 | 93 | 1009.0 |
| 20260505094607 | 11 | 252 | 0.0 | 4.8 | 0.00 | 0.00 | 0.00 | 92 | 1008.9 |
| 20260505093058 | 11 | 284 | 0.0 | 3.2 | 0.00 | 0.00 | 0.00 | 92 | 1009.0 |
| 20260505091616 | 11 | 0 | 0.0 | 3.2 | 0.00 | 0.00 | 0.00 | 92 | 1009.0 |
| 20260505084606 | 11 | 142 | 0.0 | 6.4 | 0.00 | 0.00 | 0.00 | 91 | 1009.0 |
| 20260505083107 | 11 | 160 | 1.6 | 9.7 | 0.00 | 0.00 | 0.00 | 91 | 1009.1 |
| 20260505081558 | 11 | 326 | 0.0 | 9.7 | 0.00 | 0.00 | 0.00 | 91 | 1009.1 |
| 20260505080058 | 11 | 292 | 4.8 | 11.3 | 0.00 | 0.00 | 0.00 | 90 | 1009.1 |
| 20260505074559 | 11 | 22 | 3.2 | 8.0 | 0.00 | 0.00 | 0.00 | 90 | 1009.1 |
| 20260505073104 | 11 | 331 | 3.2 | 16.1 | 0.00 | 0.00 | 0.00 | 90 | 1009.1 |
| 20260505071600 | 11 | 222 | 3.2 | 6.4 | 0.00 | 0.00 | 0.00 | 90 | 1009.2 |
| 20260505070106 | 11 | 0 | 4.8 | 11.3 | 0.00 | 0.00 | 0.00 | 89 | 1009.1 |
| 20260505064600 | 11 | 0 | 1.6 | 9.7 | 0.00 | 0.00 | 0.00 | 89 | 1009.2 |
| 20260505063100 | 11 | 236 | 3.2 | 11.3 | 0.00 | 0.00 | 0.00 | 89 | 1009.1 |
| 20260505061627 | 11 | 351 | 3.2 | 12.9 | 0.00 | 0.00 | 0.00 | 89 | 1009.2 |